[[[{"header":{"parameterUnit":"kt","parameterCategory":2,"dx":1,"dy":1,"la1":30.253999710083008,"la2":30.299108505249023,"lo1":-89.0895004272461,"lo2":-89.04439544677734,"nx":28,"ny":28,"refTime":"2022-09-20T15:00:00:Z","depth":0,"parameterNumber":1,"parameterNumberName":"U-component_of_WINDS"},"data":[2.2392,2.2462,2.2467,2.2548,2.2566,2.2622,2.2644,2.2672,2.2695,2.2763,2.2802,2.2814,2.2839,2.2887,2.293,2.2934,2.2951,2.2972,2.2973,2.2878,2.2865,2.2852,2.2835,2.2976,2.2976,2.307,2.3071,2.3072,2.2318,2.2337,2.2382,2.2428,2.2467,2.2449,2.2485,2.2518,2.2569,2.2599,2.2639,2.2698,2.2746,2.2766,2.2812,2.2844,2.2839,2.2856,2.2853,2.2857,2.2756,2.2738,2.286,2.286,2.286,2.286,2.286,2.286,2.2184,2.2226,2.2257,2.2306,2.2332,2.2363,2.2404,2.2418,2.2462,2.2512,2.251,2.2568,2.2599,2.2659,2.268,2.2725,2.2706,2.2727,2.2732,2.2737,2.274,2.2599,2.2733,2.2733,2.2733,2.2733,2.2732,0,2.2087,2.2088,2.2132,2.2177,2.2214,2.225,2.2283,2.2309,2.2314,2.235,2.2404,2.2435,2.2497,2.2547,2.2593,2.2612,2.2597,2.2597,2.2611,2.2612,2.2605,2.2607,2.2439,2.2593,2.2592,2.2591,2.259,2.259,2.1949,2.2,2.2035,2.2066,2.2086,2.2135,2.2166,2.2166,2.2198,2.224,2.2278,2.2329,2.2369,2.2454,2.2471,2.2517,2.2511,2.2568,2.2518,2.2516,2.2509,2.2505,2.2509,2.2577,2.2579,2.258,2.2581,0,2.1871,2.188,2.1959,2.199,2.1999,2.2051,2.2078,2.2121,2.213,2.219,2.2204,2.2219,2.2272,2.2279,2.2342,2.2343,2.2427,2.242,2.2415,2.2413,2.2464,2.2458,2.2632,2.2653,2.251,2.2511,2.2513,0,2.1756,2.1823,2.1831,2.1877,2.195,2.1949,2.2021,2.2036,2.2064,2.2112,2.2097,2.2142,2.2144,2.219,2.2193,2.2263,2.2276,2.2281,2.228,2.2281,2.228,2.2297,2.2289,2.2281,2.228,2.228,2.2279,0,2.1631,2.1715,2.179,2.181,2.1851,2.1886,2.1904,2.1936,2.1966,2.2007,2.2026,2.2074,2.21,2.2137,2.214,2.2105,2.2227,2.218,2.2232,2.2232,2.2257,2.2255,2.2409,2.2278,2.2277,2.2277,2.2277,0,2.1539,2.1581,2.1689,2.1722,2.1744,2.1794,2.184,2.1885,2.192,2.1925,2.1957,2.1948,2.2012,2.1964,2.2051,2.2004,2.203,2.2041,2.2045,2.2049,2.1995,2.2078,2.2225,2.2239,2.2055,2.2053,2.2052,0,2.1392,2.1505,2.1505,2.1608,2.166,2.1639,2.1695,2.1726,2.1738,2.1784,2.1797,2.185,2.1816,2.1833,2.1876,2.1891,2.1952,2.1883,2.1947,2.1949,2.1935,2.2071,2.209,2.2192,2.2028,2.2031,2.2032,0,2.1279,2.1329,2.1348,2.137,2.1413,2.1458,2.1522,2.1575,2.1605,2.1644,2.1696,2.1773,2.1749,2.1779,2.1777,2.1821,2.1911,2.179,2.1791,2.1809,2.2018,2.2035,2.2052,2.1899,2.1902,2.1905,2.2014,0,2.1133,2.1192,2.1244,2.1296,2.1333,2.1399,2.1407,2.1444,2.1438,2.1449,2.1528,2.1558,2.1612,2.1635,2.1631,2.1729,2.1713,2.1689,2.1641,2.1732,2.1767,2.1782,2.1587,2.1586,2.1584,2.1584,0,0,2.0989,2.1073,2.1073,2.1136,2.1166,2.1143,2.1213,2.124,2.1296,2.1317,2.1291,2.1403,2.1429,2.1524,2.1553,2.1576,2.1594,2.1563,2.1689,2.1701,2.1712,2.175,2.1766,2.1582,2.1581,2.1581,2.158,0,2.0937,2.0965,2.1035,2.1062,2.1104,2.1112,2.1129,2.1166,2.1177,2.1256,2.1236,2.1285,2.1377,2.1405,2.1432,2.1552,2.1534,2.1568,2.1628,2.1678,2.1691,2.1703,2.1743,2.1758,2.1578,2.1578,2.1578,0,2.0825,2.0853,2.0888,2.0958,2.0985,2.1041,2.0993,2.1055,2.1097,2.107,2.1149,2.1167,2.1207,2.1298,2.1339,2.1316,2.1478,2.143,2.1438,2.1442,2.149,2.1506,2.152,2.1333,2.1332,2.1331,0,0,2.0779,2.0835,2.0865,2.0947,2.0966,2.098,2.1011,2.1009,2.1046,2.1061,2.1083,2.112,2.1172,2.1207,2.1257,2.1356,2.1363,2.14,2.1411,2.1421,2.143,2.1481,2.1497,2.1328,2.1328,2.1328,0,0,2.0757,2.0795,2.0783,2.088,2.0915,2.0951,2.1,2.0986,2.1032,2.1025,2.1025,2.1035,2.112,2.1139,2.1092,2.124,2.1193,2.1205,2.1224,2.1239,2.125,2.1243,2.1048,0,0,0,0,0,2.0708,2.079,2.0779,2.0796,2.0885,2.0957,2.0968,2.0969,2.0935,2.0974,2.0991,2.0971,2.1113,2.1072,2.1089,2.1141,2.1284,2.1292,2.1299,2.1348,2.1363,2.1376,0,0,0,0,0,0,2.0715,2.0737,2.0776,2.0815,2.0835,2.0954,2.0896,2.0899,2.0931,2.0926,2.0968,2.0972,2.0974,2.1063,2.1079,2.1127,2.1042,2.1287,2.1294,2.13,2.1353,2.1365,2.1376,0,0,0,0,0,2.0721,2.0738,2.0881,2.0814,2.0832,2.0852,2.0893,2.0895,2.092,2.0947,2.095,2.0918,2.0976,2.0989,2.1072,2.112,2.1031,2.1037,2.1292,2.1297,2.1301,2.1359,0,0,0,0,0,0,2.0725,2.074,2.0884,2.0889,2.0784,2.0846,2.0855,2.0892,2.0938,2.0943,2.0896,2.0891,2.0978,2.0988,2.0998,2.1118,2.1022,2.1028,2.1032,2.1295,2.13,2.1303,0,0,0,0,0,0,2.0731,2.0745,2.0887,2.0848,2.0849,2.084,2.0848,2.092,2.0939,2.0885,2.0883,2.0893,2.0962,2.0987,2.0995,2.1107,2.1016,2.1021,2.1025,2.1028,2.1299,2.1302,0,0,0,0,0,0,2.0737,2.0749,2.0847,2.0848,2.0848,2.0908,2.0902,2.0994,2.0906,2.0883,2.0898,2.0895,2.0963,2.0971,2.0993,2.1102,2.1105,2.1016,2.102,2.1023,2.1024,0,0,0,0,0,0,0,2.0742,2.0661,2.0853,2.0847,2.0847,2.0938,2.094,2.0941,2.0905,2.0902,2.0899,2.0896,2.0983,2.0989,2.0996,2.1097,0,0,2.1015,2.1018,0,0,0,0,0,0,0,0,2.0656,2.066,2.0853,2.0854,2.0855,2.0939,2.094,2.0941,2.0905,2.0902,2.09,2.0897,2.0985,2.099,2.0995,0,0,0,0,0,0,0,0,0,0,0,0,0,0,0,2.0853,2.0854,0,2.0939,2.094,2.0941,2.0904,2.0902,2.09,2.0898,2.0986,2.099,2.0995,0,0,0,0,0,0,0,0,0,0,0,0,0,0,0,0,0,0,0,0,0,0,0,0,0,0,0,0,0,0,0,0,0,0,0,0,0,0,0,0,0,0,0,0,0,0,0,0,0,0,0,0,0,0,0,0,0,0,0,0,0,0,0,0,0,0,0,0,0]}],[{"header":{"parameterUnit":"kt","parameterCategory":2,"dx":1,"dy":1,"la1":30.253999710083008,"la2":30.299108505249023,"lo1":-89.0895004272461,"lo2":-89.04439544677734,"nx":28,"ny":28,"refTime":"2022-09-20T15:00:00:Z","depth":0,"parameterNumber":2,"parameterNumberName":"V-component_of_WINDS"},"data":[0.7669,0.7623,0.757,0.7491,0.743,0.7365,0.7325,0.7266,0.7205,0.7119,0.7058,0.6998,0.6912,0.6824,0.6754,0.6727,0.67,0.6722,0.6687,0.6641,0.6631,0.6622,0.6631,0.6718,0.6718,0.6742,0.6742,0.6742,0.7638,0.7578,0.7522,0.7431,0.7381,0.7328,0.725,0.7211,0.7153,0.7078,0.7016,0.6934,0.6861,0.6766,0.6686,0.6658,0.6627,0.664,0.664,0.6627,0.6577,0.6587,0.6666,0.6666,0.6666,0.6666,0.6666,0.6666,0.7566,0.7541,0.7456,0.7393,0.7333,0.7272,0.7236,0.7164,0.7105,0.7019,0.6964,0.6897,0.6808,0.6684,0.6628,0.6571,0.6546,0.6542,0.6541,0.6541,0.6549,0.652,0.6554,0.6554,0.6554,0.6553,0.6553,0,0.7498,0.7456,0.7398,0.7325,0.7276,0.7213,0.7146,0.7122,0.7012,0.6968,0.6898,0.6849,0.6749,0.6675,0.6587,0.6528,0.6466,0.6453,0.645,0.6476,0.651,0.649,0.6409,0.6453,0.6452,0.6451,0.645,0.645,0.7421,0.7398,0.7283,0.7249,0.72,0.7147,0.7104,0.7008,0.6966,0.6867,0.6847,0.6773,0.6709,0.6603,0.6514,0.6438,0.6407,0.6429,0.6395,0.642,0.6405,0.6407,0.6403,0.6438,0.644,0.6441,0.6442,0,0.7382,0.7296,0.7243,0.7131,0.7102,0.7081,0.6983,0.6952,0.6884,0.6831,0.6812,0.6705,0.6637,0.6544,0.6447,0.6399,0.6357,0.6329,0.6387,0.6376,0.6386,0.6386,0.6436,0.6437,0.6346,0.6347,0.6348,0,0.7282,0.7255,0.7128,0.7102,0.7067,0.6973,0.694,0.6879,0.6803,0.676,0.6676,0.6637,0.6525,0.6471,0.6401,0.635,0.6332,0.6292,0.6274,0.63,0.6305,0.6274,0.6269,0.6235,0.6235,0.6235,0.6235,0,0.723,0.7131,0.7088,0.7051,0.6928,0.6909,0.6857,0.6771,0.673,0.6659,0.663,0.6555,0.6514,0.6455,0.6367,0.6347,0.6303,0.6257,0.6262,0.6264,0.6257,0.6259,0.6327,0.6235,0.6235,0.6235,0.6235,0,0.7136,0.7071,0.7023,0.6918,0.6895,0.6866,0.6788,0.6742,0.6657,0.6613,0.6557,0.6489,0.6439,0.64,0.6327,0.6326,0.6288,0.6246,0.6245,0.6234,0.6193,0.6243,0.6318,0.6322,0.6224,0.6224,0.6224,0,0.7099,0.7027,0.6947,0.6901,0.6855,0.6765,0.673,0.6659,0.6597,0.6546,0.6476,0.6418,0.637,0.6339,0.6315,0.6239,0.6241,0.6236,0.6159,0.6157,0.6184,0.6253,0.6288,0.6312,0.6221,0.6222,0.6222,0,0.7059,0.6914,0.6912,0.6865,0.676,0.6721,0.6681,0.6605,0.6576,0.6505,0.6468,0.6385,0.6344,0.6294,0.6231,0.6212,0.6237,0.617,0.6166,0.6184,0.6213,0.6246,0.625,0.6198,0.6198,0.6198,0.622,0,0.6934,0.6888,0.6879,0.6783,0.6739,0.6706,0.6611,0.6576,0.6521,0.6457,0.6401,0.6318,0.6238,0.6219,0.6165,0.6151,0.6138,0.6096,0.605,0.6097,0.6101,0.6103,0.6051,0.6049,0.6048,0.6046,0,0,0.692,0.6852,0.6766,0.6726,0.6684,0.6591,0.6564,0.6511,0.6407,0.6378,0.6352,0.6224,0.6158,0.6099,0.6106,0.6074,0.6062,0.605,0.6076,0.6079,0.6082,0.6089,0.6093,0.6043,0.6043,0.6042,0.6042,0,0.6855,0.6795,0.6772,0.6714,0.6625,0.6559,0.6554,0.6449,0.6406,0.6352,0.6274,0.6229,0.613,0.6069,0.6025,0.6055,0.5997,0.6038,0.6086,0.6063,0.6069,0.6074,0.6082,0.6086,0.6038,0.6038,0.6038,0,0.6799,0.6724,0.6703,0.6604,0.6545,0.65,0.643,0.6387,0.6351,0.625,0.6198,0.6139,0.6049,0.6008,0.5985,0.596,0.5944,0.5933,0.594,0.5935,0.5908,0.5916,0.5922,0.5838,0.5837,0.5837,0,0,0.6755,0.6713,0.6602,0.6583,0.6552,0.6454,0.6421,0.6363,0.6287,0.6258,0.6181,0.6108,0.6048,0.6012,0.5951,0.5919,0.5892,0.5912,0.5922,0.593,0.593,0.5905,0.5912,0.5836,0.5836,0.5836,0,0,0.6734,0.6606,0.6565,0.6532,0.6464,0.6352,0.6343,0.6289,0.6226,0.6219,0.6117,0.6093,0.6052,0.5997,0.5994,0.5933,0.589,0.5889,0.5971,0.5982,0.5991,0.6005,0.5909,0,0,0,0,0,0.662,0.6622,0.6586,0.6567,0.6441,0.6373,0.6356,0.6273,0.6245,0.6239,0.6166,0.6107,0.5974,0.5968,0.5949,0.5954,0.5822,0.5824,0.5827,0.5924,0.5937,0.5947,0,0,0,0,0,0,0.6612,0.6589,0.6586,0.6476,0.6447,0.6372,0.6305,0.6282,0.6243,0.6233,0.6124,0.6104,0.6031,0.5973,0.5956,0.5962,0.5914,0.5823,0.5825,0.5827,0.5929,0.5938,0.5947,0,0,0,0,0,0.6605,0.6586,0.6407,0.6475,0.645,0.6341,0.6304,0.6285,0.6253,0.614,0.6119,0.6194,0.6033,0.6013,0.5962,0.5972,0.5924,0.5919,0.5824,0.5826,0.5827,0.5933,0,0,0,0,0,0,0.6599,0.6566,0.64,0.6389,0.6469,0.6343,0.6321,0.6288,0.6161,0.614,0.6206,0.62,0.6035,0.6019,0.6005,0.598,0.5933,0.5927,0.5924,0.5826,0.5827,0.5828,0,0,0,0,0,0,0.6576,0.6558,0.6395,0.6392,0.638,0.6346,0.6326,0.627,0.616,0.6233,0.6224,0.6205,0.6055,0.6023,0.6012,0.5928,0.594,0.5934,0.593,0.5928,0.5827,0.5828,0,0,0,0,0,0,0.6567,0.6551,0.6394,0.6385,0.6374,0.6245,0.6295,0.617,0.6161,0.624,0.6158,0.6156,0.6061,0.6048,0.6017,0.5939,0.5931,0.594,0.5936,0.5933,0.5931,0,0,0,0,0,0,0,0.6559,0.6684,0.6465,0.6379,0.637,0.6288,0.6285,0.6282,0.6161,0.616,0.6158,0.6157,0.5972,0.5966,0.5959,0.5948,0,0,0.594,0.5938,0,0,0,0,0,0,0,0,0.6688,0.6685,0.6465,0.6463,0.6461,0.6288,0.6285,0.6283,0.6161,0.616,0.6159,0.6158,0.597,0.5965,0.596,0,0,0,0,0,0,0,0,0,0,0,0,0,0,0,0.6465,0.6463,0,0.6288,0.6286,0.6284,0.6161,0.616,0.6159,0.6158,0.5969,0.5965,0.5961,0,0,0,0,0,0,0,0,0,0,0,0,0,0,0,0,0,0,0,0,0,0,0,0,0,0,0,0,0,0,0,0,0,0,0,0,0,0,0,0,0,0,0,0,0,0,0,0,0,0,0,0,0,0,0,0,0,0,0,0,0,0,0,0,0,0,0,0,0]}]]]